Regional Weather Roundup
Issued by NWS Green Bay, WI

Home | Current Version | Previous Version | Graphics & Text | Print | Product List | Glossary Off
Versions: 1 2 3 4 5 6 7 8 9 10 11 12 13 14 15 16 17 18 19 20 21 22 23 24 25 26 27 28 29 30 31 32 33 34 35 36 37 38 39 40 41 42 43 44 45 46 47 48 49 50

000
ASUS43 KGRB 282259
RWRGRB

NORTH-CENTRAL AND NORTHEAST WISCONSIN REGIONAL WEATHER ROUNDUP
NATIONAL WEATHER SERVICE GREEN BAY WI
500 PM CST FRI NOV 28 2014

WIZ005-009-010>012-018-019-290000-
NORTH CENTRAL WISCONSIN

CITY           SKY/WX    TMP DP  RH WIND       PRES   REMARKS
IRONWOOD       MOCLDY    16   9  73 E3        29.85F
MANITOWISH WTR NOT AVBL
ARBOR VITAE    NOT AVBL
EAGLE RIVER    NOT AVBL
LAND O LAKES   NOT AVBL
RHINELANDER    CLOUDY    14  10  84 SE9       29.88F WCI   2
PHILLIPS       NOT AVBL
ANTIGO         NOT AVBL
TOMAHAWK       NOT AVBL
MERRILL        NOT AVBL
$$

WIZ013-073-290000-
NORTHEAST WISCONSIN

CITY           SKY/WX    TMP DP  RH WIND       PRES   REMARKS
IRON MOUNTAIN  LGT SNOW  14  10  84 CALM      29.94F FOG
MARINETTE      CLOUDY    23  19  86 NE5       29.97F
$$

WIZ017-030-035>037-045-290000-
CENTRAL WISCONSIN

CITY           SKY/WX    TMP DP  RH WIND       PRES   REMARKS
MEDFORD        NOT AVBL
WAUSAU         CLOUDY    18  14  84 E7        29.90R WCI   9
MOSINEE        CLOUDY    18  18 100 E5        29.91R
MARSHFIELD     CLOUDY    21  15  78 SE7       29.89R
WISC RAPIDS    CLOUDY    23  16  74 SE6       29.92R
STEVENS POINT  NOT AVBL
WAUPACA        NOT AVBL
SHAWANO        NOT AVBL
CLINTONVILLE   NOT AVBL
$$

WIZ038-039-048-051-290000-
FOX VALLEY

CITY           SKY/WX    TMP DP  RH WIND       PRES   REMARKS
NWS GREEN BAY  LGT SNOW  25  22  88 CALM      29.96S FOG
APPLETON       CLOUDY    25  18  74 SE3       29.94F
OSHKOSH        CLOUDY    26  19  74 MISG      29.93F
FOND DU LAC    CLOUDY    27  18  69 S7        29.94F
$$

WIZ022-050-052-290000-
EAST CENTRAL WISCONSIN

CITY           SKY/WX    TMP DP  RH WIND       PRES   REMARKS
STURGEON BAY   CLOUDY    21  18  86 E5        29.96F
MANITOWOC      NOT AVBL
SHEBOYGAN      CLOUDY    28  20  71 S10       29.96F
$$

LMZ563-521-522-541>543-290000-
LAKESHORE

STATION/POSITION TIME  TEMP    WIND        PRES    VSBY  WAVE
                       AIR SEA DIR/SP/G                  HT/PER
                 (UTC) (F)     (DEG/KT/KT) (MB)    (MI)  (FT/S)
SHEBOYGAN LKSHOR 2200   32 35  210/ 17/ 21 1016.1F
KEWAUNEE LKSHORE 2200   24     210/  6/ 10 1013.9F
ALGOMA MARINA    2200          340/  7/  8   N/A
NORTHPORT PIER   2200   24      50/  5/  8 1015.9F
N MID LAKE BUOY  2200   28 42  110/  6/ 12 1017.7F         2/ 4
SISTER BAY LKSHO 2200             CALM       N/A
CHAMBERS ISLAND  2200   23      80/  3/  7 1016.3S
MENOMINEE LKSHOR 2200   25      60/  7/  9 1015.9F
$$



USA.gov is the U.S. government's official web portal to all federal, state and local government web resources and services.